Location: Newark
(41.8083°N, 72.2500°W)
Time: 01:45:34
(UTC+00:00)

Vanguard 1 Rocket - Pass Details

Date: 12 December 2021
Orbit: 651 x 4224 km, 34.3° (Epoch: 15 January)

Event Time Altitude Azimuth Distance (km) Brightness Sun altitude
Exits shadow 06:19:00 23° 100° (E) 3,886 10.6 -62.6°
Drops below altitude 10° 06:24:11 10° 94° (E) 5,438 11.5 -61.8°
Sets 06:29:47 0° 91° (E) 7,031 12.3 -60.9°
